Location: Unspecified
(0.0000°N, 0.0000°E)
Time: 17:56:32
(UTC+00:00)

STARLINK 1053 - Pass Details

Date: 15 January 2020
Orbit: 548 x 551 km, 53.0° (Epoch: 17 January)

Event Time Altitude Azimuth Distance (km) Brightness Sun altitude
Rises 19:20:30 0° 321° (NW) 2,700 7.4 -16.6°
Reaches altitude 10° 19:22:44 10° 319° (NW) 1,810 6.5 -17.1°
Maximum altitude 19:26:49 67° 236° (WSW) 595 3.9 -18.0°
Drops below altitude 10° 19:30:56 10° 153° (SSE) 1,819 6.2 -19.0°
Sets 19:33:11 0° 151° (SSE) 2,715 7.1 -19.5°
